User: anonymous   Login
Location: Unspecified
(0.0000°N, 0.0000°E)
Time: 15:39:08
(UTC+00:00)
Language:

NOSS 3-4 (C) - Orbit

View from above orbital plane
View from above orbital plane
View from above satellite
View from above satellite

Ground track
Ground track

The orbit data is extracted from the following two-line orbital elements,

1 31708U 07027C   17227.98616981 0.00000000  00000-0  00000-0 0    05
2 31708  63.4000 291.1480 0193000  25.0616 334.9384 13.40730136    04
Epoch (UTC): 15 August 2017 23:40:05
Eccentricity: 0.0193000
inclination: 63.4000°
perigee height: 962 km
apogee height: 1251 km
right ascension of ascending node: 291.1480°
argument of perigee: 25.0616°
revolutions per day: 13.40730136
mean anomaly at epoch: 334.9384°
orbit number at epoch: 0

The dashed part of the orbit path shows where the satellite is in the earth's shadow,  

DLR